Curacao, Curacao

11:16 AM AST on October 19, 2017 (GMT -0400)
Willemstad-Hato International

Weather History for TNCC - August, 2014

Change the Weather History Date:

Monday, August 18, 2014

  Actual Average Record
Temperature  
Mean Temperature 86 °F -  
Max Temperature 90 °F 89 °F 96 °F (1999)
Min Temperature 81 °F 78 °F 77 °F (2007)
Cooling Degree Days 20    
Growing Degree Days 36 (Base 50)    
Moisture  
Dew Point 76 °F    
Average Humidity 74    
Maximum Humidity 84    
Minimum Humidity 55    
Precipitation  
Precipitation 0.00 in 0.06 in - ()
Sea Level Pressure  
Sea Level Pressure 29.92 in    
Wind  
Wind Speed 12 mph ()    
Max Wind Speed 16 mph    
Max Gust Speed -    
Visibility 8.0 miles    
Events Rain    
Averages and records for this station are not official NWS values.
T = Trace of Precipitation, MM = Missing Value Source: Averaged Metar Reports

Daily Weather History Graph

Daily Weather History Graph

Search for Another Location

Airport or City:

Trip Planner

Search our weather history database for the weather conditions in past years. The results will help you decide how hot, cold, wet, or windy it might be!

Date:

Astronomy

Aug. 18, 2014 Rise Set
Actual Time 6:24 AM AST 6:54 PM AST
Civil Twilight 6:02 AM AST 7:16 PM AST
Nautical Twilight 5:37 AM AST 7:41 PM AST
Astronomical Twilight 5:11 AM AST 8:07 PM AST
Moon 12:41 AM AST (8/18) 1:39 PM AST (8/18)
Length of Visible Light 13h 13m
Length of Day
12h 29m
Last Quarter, 38% of the Moon is Illuminated
Aug 18
Last Quarter
Aug 25
New
Sep 2
First Quarter
Sep 8
Full
Sep 15
Last Quarter

Hourly Weather History & Observations

Time (AST) Temp. Heat Index Dew Point Humidity Pressure Visibility Wind Dir Wind Speed Gust Speed Precip Events Conditions
12:00 AM 82.4 °F 90.9 °F 77.0 °F 84% 29.95 in 6.2 mi ESE 10.4 mph - N/A   Partly Cloudy
1:00 AM 82.4 °F 90.9 °F 77.0 °F 84% 29.95 in 6.2 mi ESE 11.5 mph - N/A Rain Light Rain Showers
2:00 AM 82 °F - 77 °F 81% 29.93 in 16 mi ESE 11.5 mph - -   Scattered Clouds
2:00 AM 82.4 °F 90.9 °F 77.0 °F 84% 29.92 in 6.2 mi ESE 12.7 mph - N/A   Partly Cloudy
3:00 AM 82.4 °F 90.9 °F 77.0 °F 84% 29.92 in 6.2 mi ESE 12.7 mph - N/A   Scattered Clouds
4:00 AM 82.4 °F 90.9 °F 77.0 °F 84% 29.92 in 6.2 mi ESE 12.7 mph - N/A   Scattered Clouds
5:00 AM 82 °F - 76 °F 79% 29.93 in 16 mi ESE 12.7 mph - -   Partly Cloudy
5:00 AM 82.4 °F 90.9 °F 77.0 °F 84% 29.92 in 6.2 mi ESE 12.7 mph - N/A   Scattered Clouds
6:00 AM 82.4 °F 90.9 °F 77.0 °F 84% 29.92 in 6.2 mi ESE 11.5 mph - N/A   Partly Cloudy
7:00 AM 82.4 °F 90.9 °F 77.0 °F 84% 29.92 in 6.2 mi East 15.0 mph - N/A   Partly Cloudy
8:00 AM 85 °F - 77 °F 72% 29.95 in 22 mi East 13.8 mph - -   Scattered Clouds
8:00 AM 86.0 °F 96.9 °F 77.0 °F 74% 29.95 in 6.2 mi ESE 15.0 mph - N/A   Partly Cloudy
9:00 AM 87.8 °F 102.5 °F 78.8 °F 75% 29.95 in 6.2 mi East 12.7 mph - N/A   Scattered Clouds
10:00 AM 87.8 °F 99.7 °F 77.0 °F 70% 29.95 in 6.2 mi East 15.0 mph - N/A   Partly Cloudy
11:00 AM 89 °F - 77 °F 60% 29.97 in 22 mi ESE 16.1 mph - -   Scattered Clouds
11:00 AM 89.6 °F 102.2 °F 77.0 °F 66% 29.95 in 6.2 mi East 12.7 mph - N/A   Partly Cloudy
12:00 PM 89.6 °F 99.8 °F 75.2 °F 62% 29.95 in 6.2 mi East 15.0 mph - N/A   Partly Cloudy
1:00 PM 91.4 °F 102.5 °F 75.2 °F 59% 29.92 in 6.2 mi East 16.1 mph - N/A   Partly Cloudy
2:00 PM 89 °F - 75 °F 55% 29.89 in 16 mi East 16.1 mph - -   Scattered Clouds
2:00 PM 89.6 °F 99.8 °F 75.2 °F 62% 29.89 in 6.2 mi East 16.1 mph - N/A   Partly Cloudy
3:00 PM 87.8 °F 97.6 °F 75.2 °F 66% 29.86 in 6.2 mi East 15.0 mph - N/A   Partly Cloudy
4:00 PM 87.8 °F 97.6 °F 75.2 °F 66% 29.86 in 6.2 mi East 12.7 mph - N/A   Scattered Clouds
5:00 PM 87 °F - 76 °F 62% 29.85 in 16 mi East 11.5 mph - -   Scattered Clouds
5:00 PM 86.0 °F 95.1 °F 75.2 °F 70% 29.86 in 6.2 mi East 11.5 mph - N/A   Partly Cloudy
6:00 PM 84.2 °F 92.3 °F 75.2 °F 74% 29.86 in 6.2 mi East 12.7 mph - N/A   Partly Cloudy
7:00 PM 82.4 °F 89.5 °F 75.2 °F 79% 29.86 in 6.2 mi East 15.0 mph - N/A   Partly Cloudy
8:00 PM 83 °F - 75 °F 72% 29.90 in 16 mi East 13.8 mph - -   Scattered Clouds
8:00 PM 82.4 °F 89.5 °F 75.2 °F 79% 29.89 in 6.2 mi East 13.8 mph - N/A   Partly Cloudy
9:00 PM 82.4 °F 89.5 °F 75.2 °F 79% 29.92 in 6.2 mi ESE 13.8 mph - N/A   Partly Cloudy
10:00 PM 82.4 °F 89.5 °F 75.2 °F 79% 29.92 in 6.2 mi ESE 13.8 mph - N/A   Partly Cloudy
11:00 PM 82 °F - 76 °F 76% 29.96 in 12 mi East 11.5 mph - -   Haze
11:00 PM 82.4 °F 89.5 °F 75.2 °F 79% 29.95 in 6.2 mi ESE 12.7 mph - N/A   Partly Cloudy